| time (UTC) | temp F | wind direction | speed MPH | gust MPH | rain 1hr in | rain 24hr in | rain mn in | humidity % | barometer mb |
| 20260505015925 | 65 | 205 | 1.0 | 2.0 | 0.00 | 0.00 | 0.00 | 59 | 1010.6 |
| 20260505015422 | 65 | 205 | 1.0 | 2.0 | 0.00 | 0.00 | 0.00 | 59 | 1010.6 |
| 20260505014919 | 65 | 232 | 1.0 | 1.0 | 0.00 | 0.00 | 0.00 | 59 | 1010.8 |
| 20260504222732 | 71 | 236 | 1.0 | 1.0 | 0.00 | 0.00 | 0.00 | 45 | 1010.4 |
| 20260504222229 | 71 | 236 | 1.0 | 1.0 | 0.00 | 0.00 | 0.00 | 45 | 1010.4 |
| 20260504221726 | 71 | 236 | 1.0 | 1.0 | 0.00 | 0.00 | 0.00 | 45 | 1010.4 |
| 20260504160326 | 61 | 220 | 2.0 | 3.0 | 0.00 | 0.00 | 0.00 | 56 | 1014.4 |
| 20260504150647 | 61 | 155 | 5.0 | 6.0 | 0.00 | 0.00 | 0.00 | 51 | 1015.1 |
| 20260504150144 | 60 | 146 | 8.0 | 9.0 | 0.00 | 0.00 | 0.00 | 49 | 1015.0 |
| 20260504141113 | 63 | 192 | 2.0 | 2.0 | 0.00 | 0.00 | 0.00 | 43 | 1015.4 |
| 20260504140609 | 63 | 232 | 0.0 | 0.0 | 0.00 | 0.00 | 0.00 | 46 | 1015.3 |
| 20260504140105 | 63 | 169 | 1.0 | 2.0 | 0.00 | 0.00 | 0.00 | 45 | 1015.4 |
| 20260504130533 | 61 | 229 | 0.0 | 0.0 | 0.00 | 0.00 | 0.00 | 51 | 1015.7 |
| 20260504081129 | 51 | 249 | 0.0 | 0.0 | 0.00 | 0.00 | 0.00 | 65 | 1015.6 |
| 20260504080626 | 51 | 249 | 0.0 | 0.0 | 0.00 | 0.00 | 0.00 | 65 | 1015.6 |
| 20260504080122 | 51 | 248 | 0.0 | 0.0 | 0.00 | 0.00 | 0.00 | 65 | 1016.1 |
| 20260504050346 | 51 | 259 | 0.0 | 0.0 | 0.00 | 0.00 | 0.00 | 67 | 1015.9 |
| 20260504045843 | 51 | 259 | 0.0 | 0.0 | 0.00 | 0.00 | 0.00 | 65 | 1016.0 |
| 20260504045338 | 51 | 260 | 0.0 | 0.0 | 0.00 | 0.00 | 0.00 | 68 | 1016.1 |
| 20260504044835 | 51 | 259 | 0.0 | 0.0 | 0.00 | 0.00 | 0.00 | 66 | 1016.2 |
| 20260504044332 | 51 | 259 | 0.0 | 0.0 | 0.00 | 0.00 | 0.00 | 69 | 1016.0 |
| 20260504043830 | 51 | 259 | 0.0 | 0.0 | 0.00 | 0.00 | 0.00 | 64 | 1016.1 |
| 20260504043326 | 51 | 259 | 0.0 | 0.0 | 0.00 | 0.00 | 0.00 | 64 | 1016.1 |
| 20260504042824 | 51 | 259 | 0.0 | 0.0 | 0.00 | 0.00 | 0.00 | 64 | 1016.0 |
| 20260504042320 | 50 | 260 | 0.0 | 0.0 | 0.00 | 0.00 | 0.00 | 67 | 1016.0 |
| 20260504041816 | 50 | 260 | 0.0 | 1.0 | 0.00 | 0.00 | 0.00 | 71 | 1015.9 |
| 20260504041313 | 50 | 263 | 1.0 | 1.0 | 0.00 | 0.00 | 0.00 | 72 | 1016.0 |
| 20260504040809 | 50 | 276 | 1.0 | 2.0 | 0.00 | 0.00 | 0.00 | 71 | 1015.8 |
| 20260504040307 | 50 | 272 | 1.0 | 1.0 | 0.00 | 0.00 | 0.00 | 72 | 1015.9 |
| 20260504035802 | 50 | 260 | 0.0 | 0.0 | 0.00 | 0.00 | 0.00 | 71 | 1015.7 |
| 20260504035300 | 50 | 260 | 0.0 | 0.0 | 0.00 | 0.00 | 0.00 | 70 | 1015.6 |
| 20260504034757 | 50 | 260 | 0.0 | 0.0 | 0.00 | 0.00 | 0.00 | 70 | 1015.6 |
| 20260504034254 | 50 | 259 | 0.0 | 0.0 | 0.00 | 0.00 | 0.00 | 68 | 1015.5 |
| 20260504033752 | 50 | 260 | 0.0 | 0.0 | 0.00 | 0.00 | 0.00 | 65 | 1015.4 |
| 20260504033249 | 50 | 260 | 0.0 | 0.0 | 0.00 | 0.00 | 0.00 | 66 | 1015.7 |
| 20260504032746 | 50 | 266 | 0.0 | 0.0 | 0.00 | 0.00 | 0.00 | 72 | 1015.6 |
| 20260504032243 | 50 | 252 | 0.0 | 0.0 | 0.00 | 0.00 | 0.00 | 72 | 1015.5 |
| 20260504031739 | 50 | 252 | 0.0 | 0.0 | 0.00 | 0.00 | 0.00 | 72 | 1015.5 |
| 20260504031237 | 50 | 252 | 0.0 | 0.0 | 0.00 | 0.00 | 0.00 | 67 | 1015.5 |
| 20260504030732 | 50 | 264 | 0.0 | 0.0 | 0.00 | 0.00 | 0.00 | 69 | 1015.5 |
| 20260504030230 | 50 | 267 | 1.0 | 1.0 | 0.00 | 0.00 | 0.00 | 69 | 1015.4 |
| 20260504025726 | 50 | 266 | 0.0 | 0.0 | 0.00 | 0.00 | 0.00 | 73 | 1015.4 |
| 20260504025223 | 50 | 266 | 0.0 | 0.0 | 0.00 | 0.00 | 0.00 | 72 | 1015.4 |